Year,Month,Day,Hour,Minute,Value (Times are PST for temperature in C)
2020,04,16,00,00,9.20
2020,04,16,00,01,9.30
2020,04,16,00,02,9.30
2020,04,16,00,03,9.30
2020,04,16,00,04,9.30
2020,04,16,00,05,9.20
2020,04,16,00,06,9.20
2020,04,16,00,07,9.10
2020,04,16,00,08,9.00
2020,04,16,00,09,9.00
2020,04,16,00,10,8.90
2020,04,16,00,11,8.80
2020,04,16,00,12,8.80
2020,04,16,00,13,8.80
2020,04,16,00,14,8.80
2020,04,16,00,15,8.80
2020,04,16,00,16,8.80
2020,04,16,00,17,8.80
2020,04,16,00,18,8.80
2020,04,16,00,19,8.80
2020,04,16,00,20,8.80
2020,04,16,00,21,8.80
2020,04,16,00,22,8.80
2020,04,16,00,23,8.80
2020,04,16,00,24,8.80
2020,04,16,00,25,8.80
2020,04,16,00,26,8.80
2020,04,16,00,27,8.80
2020,04,16,00,28,8.80
2020,04,16,00,29,8.80
2020,04,16,00,30,8.70
2020,04,16,00,31,8.70
2020,04,16,00,32,8.70
2020,04,16,00,33,8.70
2020,04,16,00,34,8.70
2020,04,16,00,35,8.70
2020,04,16,00,36,8.70
2020,04,16,00,37,8.60
2020,04,16,00,38,8.60
2020,04,16,00,39,8.50
2020,04,16,00,40,8.50
2020,04,16,00,41,8.40
2020,04,16,00,42,8.40
2020,04,16,00,43,8.30
2020,04,16,00,44,8.20
2020,04,16,00,45,8.20
2020,04,16,00,46,8.10
2020,04,16,00,47,8.10
2020,04,16,00,48,8.00
2020,04,16,00,49,8.00
2020,04,16,00,50,7.90
2020,04,16,00,51,7.90
2020,04,16,00,52,7.90
2020,04,16,00,53,7.90
2020,04,16,00,54,7.90
2020,04,16,00,55,7.90
2020,04,16,00,56,7.90
2020,04,16,00,57,7.90
2020,04,16,00,58,7.90
2020,04,16,00,59,7.90
2020,04,16,01,00,7.90
2020,04,16,01,01,7.90
2020,04,16,01,02,7.90
2020,04,16,01,03,7.90
2020,04,16,01,04,7.80
2020,04,16,01,05,7.80
2020,04,16,01,06,7.80
2020,04,16,01,07,7.80
2020,04,16,01,08,7.80
2020,04,16,01,09,7.70
2020,04,16,01,10,7.70
2020,04,16,01,11,7.70
2020,04,16,01,12,7.70
2020,04,16,01,13,7.70
2020,04,16,01,14,7.70
2020,04,16,01,15,7.80
2020,04,16,01,16,7.80
2020,04,16,01,17,7.80
2020,04,16,01,18,7.80
2020,04,16,01,19,7.80
2020,04,16,01,20,7.80
2020,04,16,01,21,7.80
2020,04,16,01,22,7.80
2020,04,16,01,23,7.70
2020,04,16,01,24,7.70
2020,04,16,01,25,7.70
2020,04,16,01,26,7.60
2020,04,16,01,27,7.60
2020,04,16,01,28,7.60
2020,04,16,01,29,7.60
2020,04,16,01,30,7.60
2020,04,16,01,31,7.70
2020,04,16,01,32,7.70
2020,04,16,01,33,7.70
2020,04,16,01,34,7.60
2020,04,16,01,35,7.60
2020,04,16,01,36,7.60
2020,04,16,01,37,7.50
2020,04,16,01,38,7.50
2020,04,16,01,39,7.40
2020,04,16,01,40,7.40
2020,04,16,01,41,7.40
2020,04,16,01,42,7.40
2020,04,16,01,43,7.40
2020,04,16,01,44,7.40
2020,04,16,01,45,7.30
2020,04,16,01,46,7.30
2020,04,16,01,47,7.20
2020,04,16,01,48,7.20
2020,04,16,01,49,7.10
2020,04,16,01,50,7.10
2020,04,16,01,51,7.00
2020,04,16,01,52,7.00
2020,04,16,01,53,6.90
2020,04,16,01,54,6.90
2020,04,16,01,55,6.90
2020,04,16,01,56,6.90
2020,04,16,01,57,6.90
2020,04,16,01,58,6.90
2020,04,16,01,59,6.90
2020,04,16,02,00,6.90
2020,04,16,02,01,6.90
2020,04,16,02,02,6.90
2020,04,16,02,03,7.00
2020,04,16,02,04,7.00
2020,04,16,02,05,7.00
2020,04,16,02,06,6.90
2020,04,16,02,07,7.00
2020,04,16,02,08,7.00
2020,04,16,02,09,7.00
2020,04,16,02,10,7.00
2020,04,16,02,11,7.00
2020,04,16,02,12,6.90
2020,04,16,02,13,6.90
2020,04,16,02,14,6.90
2020,04,16,02,15,6.90
2020,04,16,02,16,6.90
2020,04,16,02,17,6.90
2020,04,16,02,18,6.90
2020,04,16,02,19,6.90
2020,04,16,02,20,6.90
2020,04,16,02,21,6.90
2020,04,16,02,22,6.90
2020,04,16,02,23,6.90
2020,04,16,02,24,6.90
2020,04,16,02,25,7.00
2020,04,16,02,26,7.00
2020,04,16,02,27,7.00
2020,04,16,02,28,7.00
2020,04,16,02,29,7.00
2020,04,16,02,30,6.90
2020,04,16,02,31,6.90
2020,04,16,02,32,6.80
2020,04,16,02,33,6.80
2020,04,16,02,34,6.70
2020,04,16,02,35,6.70
2020,04,16,02,36,6.70
2020,04,16,02,37,6.70
2020,04,16,02,38,6.60
2020,04,16,02,39,6.60
2020,04,16,02,40,6.50
2020,04,16,02,41,6.50
2020,04,16,02,42,6.40
2020,04,16,02,43,6.40
2020,04,16,02,44,6.30
2020,04,16,02,45,6.30
2020,04,16,02,46,6.30
2020,04,16,02,47,6.20
2020,04,16,02,48,6.20
2020,04,16,02,49,6.10
2020,04,16,02,50,6.10
2020,04,16,02,51,6.10
2020,04,16,02,52,6.00
2020,04,16,02,53,6.00
2020,04,16,02,54,6.00
2020,04,16,02,55,6.00
2020,04,16,02,56,5.90
2020,04,16,02,57,5.90
2020,04,16,02,58,5.90
2020,04,16,02,59,6.00
2020,04,16,03,00,6.00
2020,04,16,03,01,6.00
2020,04,16,03,02,6.00
2020,04,16,03,03,6.00
2020,04,16,03,04,6.00
2020,04,16,03,05,6.00
2020,04,16,03,06,6.10
2020,04,16,03,07,6.10
2020,04,16,03,08,6.10
2020,04,16,03,09,6.10
2020,04,16,03,10,6.10
2020,04,16,03,11,6.10
2020,04,16,03,12,6.10
2020,04,16,03,13,6.10
2020,04,16,03,14,6.10
2020,04,16,03,15,6.00
2020,04,16,03,16,6.00
2020,04,16,03,17,5.90
2020,04,16,03,18,5.90
2020,04,16,03,19,5.90
2020,04,16,03,20,5.80
2020,04,16,03,21,5.80
2020,04,16,03,22,5.80
2020,04,16,03,23,5.80
2020,04,16,03,24,5.80
2020,04,16,03,25,5.70
2020,04,16,03,26,5.70
2020,04,16,03,27,5.70
2020,04,16,03,28,5.70
2020,04,16,03,29,5.70
2020,04,16,03,30,5.70
2020,04,16,03,31,5.70
2020,04,16,03,32,5.70
2020,04,16,03,33,5.70
2020,04,16,03,34,5.70
2020,04,16,03,35,5.70
2020,04,16,03,36,5.70
2020,04,16,03,37,5.60
2020,04,16,03,38,5.60
2020,04,16,03,39,5.60
2020,04,16,03,40,5.60
2020,04,16,03,41,5.60
2020,04,16,03,42,5.60
2020,04,16,03,43,5.60
2020,04,16,03,44,5.60
2020,04,16,03,45,5.60
2020,04,16,03,46,5.60
2020,04,16,03,47,5.60
2020,04,16,03,48,5.60
2020,04,16,03,49,5.60
2020,04,16,03,50,5.60
2020,04,16,03,51,5.60
2020,04,16,03,52,5.60
2020,04,16,03,53,5.60
2020,04,16,03,54,5.50
2020,04,16,03,55,5.50
2020,04,16,03,56,5.50
2020,04,16,03,57,5.50
2020,04,16,03,58,5.50
2020,04,16,03,59,5.40
2020,04,16,04,00,5.40
2020,04,16,04,01,5.40
2020,04,16,04,02,5.40
2020,04,16,04,03,5.40
2020,04,16,04,04,5.40
2020,04,16,04,05,5.40
2020,04,16,04,06,5.50
2020,04,16,04,07,5.50
2020,04,16,04,08,5.50
2020,04,16,04,09,5.50
2020,04,16,04,10,5.50
2020,04,16,04,11,5.50
2020,04,16,04,12,5.50
2020,04,16,04,13,5.40
2020,04,16,04,14,5.40
2020,04,16,04,15,5.40
2020,04,16,04,16,5.40
2020,04,16,04,17,5.40
2020,04,16,04,18,5.40
2020,04,16,04,19,5.50
2020,04,16,04,20,5.50
2020,04,16,04,21,5.50
2020,04,16,04,22,5.50
2020,04,16,04,23,5.50
2020,04,16,04,24,5.50
2020,04,16,04,25,5.50
2020,04,16,04,26,5.40
2020,04,16,04,27,5.40
2020,04,16,04,28,5.40
2020,04,16,04,29,5.40
2020,04,16,04,30,5.30
2020,04,16,04,31,5.30
2020,04,16,04,32,5.30
2020,04,16,04,33,5.30
2020,04,16,04,34,5.20
2020,04,16,04,35,5.20
2020,04,16,04,36,5.20
2020,04,16,04,37,5.20
2020,04,16,04,38,5.20
2020,04,16,04,39,5.20
2020,04,16,04,40,5.30
2020,04,16,04,41,5.20
2020,04,16,04,42,5.20
2020,04,16,04,43,5.20
2020,04,16,04,44,5.20
2020,04,16,04,45,5.20
2020,04,16,04,46,5.20
2020,04,16,04,47,5.20
2020,04,16,04,48,5.20
2020,04,16,04,49,5.20
2020,04,16,04,50,5.20
2020,04,16,04,51,5.20
2020,04,16,04,52,5.20
2020,04,16,04,53,5.20
2020,04,16,04,54,5.20
2020,04,16,04,55,5.20
2020,04,16,04,56,5.20
2020,04,16,04,57,5.20
2020,04,16,04,58,5.20
2020,04,16,04,59,5.20
2020,04,16,05,00,5.20
2020,04,16,05,01,5.20
2020,04,16,05,02,5.20
2020,04,16,05,03,5.20
2020,04,16,05,04,5.20
2020,04,16,05,05,5.20
2020,04,16,05,06,5.10
2020,04,16,05,07,5.10
2020,04,16,05,08,5.10
2020,04,16,05,09,5.10
2020,04,16,05,10,5.10
2020,04,16,05,11,5.10
2020,04,16,05,12,5.10
2020,04,16,05,13,5.10
2020,04,16,05,14,5.10
2020,04,16,05,15,5.10
2020,04,16,05,16,5.10
2020,04,16,05,17,5.10
2020,04,16,05,18,5.10
2020,04,16,05,19,5.10
2020,04,16,05,20,5.10
2020,04,16,05,21,5.10
2020,04,16,05,22,5.00
2020,04,16,05,23,5.00
2020,04,16,05,24,5.00
2020,04,16,05,25,5.00
2020,04,16,05,26,4.90
2020,04,16,05,27,4.90
2020,04,16,05,28,4.90
2020,04,16,05,29,4.90
2020,04,16,05,30,4.90
2020,04,16,05,31,4.90
2020,04,16,05,32,4.90
2020,04,16,05,33,4.90
2020,04,16,05,34,4.80
2020,04,16,05,35,4.80
2020,04,16,05,36,4.80
2020,04,16,05,37,4.80
2020,04,16,05,38,4.80
2020,04,16,05,39,4.80
2020,04,16,05,40,4.80
2020,04,16,05,41,4.80
2020,04,16,05,42,4.80
2020,04,16,05,43,4.80
2020,04,16,05,44,4.80
2020,04,16,05,45,4.80
2020,04,16,05,46,4.80
2020,04,16,05,47,4.80
2020,04,16,05,48,4.80
2020,04,16,05,49,4.80
2020,04,16,05,50,4.80
2020,04,16,05,51,4.80
2020,04,16,05,52,4.80
2020,04,16,05,53,4.80
2020,04,16,05,54,4.90
2020,04,16,05,55,4.90
2020,04,16,05,56,4.90
2020,04,16,05,57,4.90
2020,04,16,05,58,4.90
2020,04,16,05,59,4.90
2020,04,16,06,00,4.90
2020,04,16,06,01,4.90
2020,04,16,06,02,4.90
2020,04,16,06,03,4.90
2020,04,16,06,04,4.90
2020,04,16,06,05,4.90
2020,04,16,06,06,4.90
2020,04,16,06,07,4.90
2020,04,16,06,08,4.90
2020,04,16,06,09,4.90
2020,04,16,06,10,4.90
2020,04,16,06,11,4.90
2020,04,16,06,12,4.80
2020,04,16,06,13,4.80
2020,04,16,06,14,4.80
2020,04,16,06,15,4.80
2020,04,16,06,16,4.80
2020,04,16,06,17,4.80
2020,04,16,06,18,4.80
2020,04,16,06,19,4.80
2020,04,16,06,20,4.70
2020,04,16,06,21,4.70
2020,04,16,06,22,4.70
2020,04,16,06,23,4.60
2020,04,16,06,24,4.60
2020,04,16,06,25,4.60
2020,04,16,06,26,4.60
2020,04,16,06,27,4.60
2020,04,16,06,28,4.50
2020,04,16,06,29,4.50
2020,04,16,06,30,4.50
2020,04,16,06,31,4.40
2020,04,16,06,32,4.40
2020,04,16,06,33,4.40
2020,04,16,06,34,4.40
2020,04,16,06,35,4.30
2020,04,16,06,36,4.30
2020,04,16,06,37,4.30
2020,04,16,06,38,4.30
2020,04,16,06,39,4.40
2020,04,16,06,40,4.40
2020,04,16,06,41,4.40
2020,04,16,06,42,4.40
2020,04,16,06,43,4.40
2020,04,16,06,44,4.40
2020,04,16,06,45,4.40
2020,04,16,06,46,4.40
2020,04,16,06,47,4.50
2020,04,16,06,48,4.50
2020,04,16,06,49,4.50
2020,04,16,06,50,4.50
2020,04,16,06,51,4.50
2020,04,16,06,52,4.50
2020,04,16,06,53,4.60
2020,04,16,06,54,4.60
2020,04,16,06,55,4.60
2020,04,16,06,56,4.70
2020,04,16,06,57,4.70
2020,04,16,06,58,4.70
2020,04,16,06,59,4.70
2020,04,16,07,00,4.80
2020,04,16,07,01,4.80
2020,04,16,07,02,4.80
2020,04,16,07,03,4.90
2020,04,16,07,04,4.90
2020,04,16,07,05,4.90
2020,04,16,07,06,5.00
2020,04,16,07,07,5.00
2020,04,16,07,08,5.00
2020,04,16,07,09,5.10
2020,04,16,07,10,5.10
2020,04,16,07,11,5.10
2020,04,16,07,12,5.20
2020,04,16,07,13,5.20
2020,04,16,07,14,5.20
2020,04,16,07,15,5.30
2020,04,16,07,16,5.30
2020,04,16,07,17,5.40
2020,04,16,07,18,5.40
2020,04,16,07,19,5.50
2020,04,16,07,20,5.50
2020,04,16,07,21,5.60
2020,04,16,07,22,5.70
2020,04,16,07,23,5.70
2020,04,16,07,24,5.80
2020,04,16,07,25,5.90
2020,04,16,07,26,5.90
2020,04,16,07,27,6.00
2020,04,16,07,28,6.10
2020,04,16,07,29,6.10
2020,04,16,07,30,6.10
2020,04,16,07,31,6.20
2020,04,16,07,32,6.20
2020,04,16,07,33,6.20
2020,04,16,07,34,6.20
2020,04,16,07,35,6.30
2020,04,16,07,36,6.30
2020,04,16,07,37,6.30
2020,04,16,07,38,6.30
2020,04,16,07,39,6.40
2020,04,16,07,40,6.50
2020,04,16,07,41,6.50
2020,04,16,07,42,6.60
2020,04,16,07,43,6.70
2020,04,16,07,44,6.70
2020,04,16,07,45,6.80
2020,04,16,07,46,6.80
2020,04,16,07,47,6.90
2020,04,16,07,48,7.00
2020,04,16,07,49,7.00
2020,04,16,07,50,7.10
2020,04,16,07,51,7.20
2020,04,16,07,52,7.30
2020,04,16,07,53,7.30
2020,04,16,07,54,7.40
2020,04,16,07,55,7.50
2020,04,16,07,56,7.50
2020,04,16,07,57,7.60
2020,04,16,07,58,7.70
2020,04,16,07,59,7.70
2020,04,16,08,00,7.80
2020,04,16,08,01,7.80
2020,04,16,08,02,7.90
2020,04,16,08,03,7.90
2020,04,16,08,04,8.00
2020,04,16,08,05,8.10
2020,04,16,08,06,8.10
2020,04,16,08,07,8.20
2020,04,16,08,08,8.30
2020,04,16,08,09,8.40
2020,04,16,08,10,8.50
2020,04,16,08,11,8.60
2020,04,16,08,12,8.60
2020,04,16,08,13,8.70
2020,04,16,08,14,8.80
2020,04,16,08,15,9.00
2020,04,16,08,16,9.10
2020,04,16,08,17,9.30
2020,04,16,08,18,9.40
2020,04,16,08,19,9.50
2020,04,16,08,20,9.60
2020,04,16,08,21,9.80
2020,04,16,08,22,9.90
2020,04,16,08,23,10.10
2020,04,16,08,24,10.20
2020,04,16,08,25,10.40
2020,04,16,08,26,10.50
2020,04,16,08,27,10.70
2020,04,16,08,28,10.80
2020,04,16,08,29,10.80
2020,04,16,08,30,10.90
2020,04,16,08,31,10.90
2020,04,16,08,32,10.90
2020,04,16,08,33,10.90
2020,04,16,08,34,10.90
2020,04,16,08,35,10.90
2020,04,16,08,36,11.00
2020,04,16,08,37,11.00
2020,04,16,08,38,11.00
2020,04,16,08,39,11.00
2020,04,16,08,40,11.00
2020,04,16,08,41,10.90
2020,04,16,08,42,10.90
2020,04,16,08,43,10.90
2020,04,16,08,44,10.80
2020,04,16,08,45,10.80
2020,04,16,08,46,10.90
2020,04,16,08,47,10.90
2020,04,16,08,48,11.00
2020,04,16,08,49,11.00
2020,04,16,08,50,11.10
2020,04,16,08,51,11.20
2020,04,16,08,52,11.30
2020,04,16,08,53,11.40
2020,04,16,08,54,11.50
2020,04,16,08,55,11.60
2020,04,16,08,56,11.70
2020,04,16,08,57,11.80
2020,04,16,08,58,11.80
2020,04,16,08,59,11.80
2020,04,16,09,00,11.90
2020,04,16,09,01,11.90
2020,04,16,09,02,12.00
2020,04,16,09,03,12.10
2020,04,16,09,04,12.10
2020,04,16,09,05,12.20
2020,04,16,09,06,12.30
2020,04,16,09,07,12.30
2020,04,16,09,08,12.40
2020,04,16,09,09,12.50
2020,04,16,09,10,12.60
2020,04,16,09,11,12.70
2020,04,16,09,12,12.70
2020,04,16,09,13,12.70
2020,04,16,09,14,12.70
2020,04,16,09,15,12.70
2020,04,16,09,16,12.70
2020,04,16,09,17,12.70
2020,04,16,09,18,12.70
2020,04,16,09,19,12.70
2020,04,16,09,20,12.70
2020,04,16,09,21,12.70
2020,04,16,09,22,12.80
2020,04,16,09,23,13.00
2020,04,16,09,24,13.10
2020,04,16,09,25,13.20
2020,04,16,09,26,13.30
2020,04,16,09,27,13.40
2020,04,16,09,28,13.40
2020,04,16,09,29,13.40
2020,04,16,09,30,13.50
2020,04,16,09,31,13.50
2020,04,16,09,32,13.60
2020,04,16,09,33,13.60
2020,04,16,09,34,13.60
2020,04,16,09,35,13.70
2020,04,16,09,36,13.70
2020,04,16,09,37,13.80
2020,04,16,09,38,13.80
2020,04,16,09,39,13.90
2020,04,16,09,40,14.10
2020,04,16,09,41,14.20
2020,04,16,09,42,14.30
2020,04,16,09,43,14.30
2020,04,16,09,44,14.30
2020,04,16,09,45,14.30
2020,04,16,09,46,14.40
2020,04,16,09,47,14.40
2020,04,16,09,48,14.30
2020,04,16,09,49,14.30
2020,04,16,09,50,14.30
2020,04,16,09,51,14.40
2020,04,16,09,52,14.40
2020,04,16,09,53,14.50
2020,04,16,09,54,14.60
2020,04,16,09,55,14.60
2020,04,16,09,56,14.70
2020,04,16,09,57,14.70
2020,04,16,09,58,14.60
2020,04,16,09,59,14.60
2020,04,16,10,00,14.60
2020,04,16,10,01,14.60
2020,04,16,10,02,14.70
2020,04,16,10,03,14.80
2020,04,16,10,04,14.90
2020,04,16,10,05,14.80
2020,04,16,10,06,14.80
2020,04,16,10,07,14.70
2020,04,16,10,08,14.60
2020,04,16,10,09,14.50
2020,04,16,10,10,14.40
2020,04,16,10,11,14.50
2020,04,16,10,12,14.50
2020,04,16,10,13,14.50
2020,04,16,10,14,14.60
2020,04,16,10,15,14.60
2020,04,16,10,16,14.60
2020,04,16,10,17,14.60
2020,04,16,10,18,14.70
2020,04,16,10,19,14.80
2020,04,16,10,20,14.90
2020,04,16,10,21,15.00
2020,04,16,10,22,15.10
2020,04,16,10,23,15.20
2020,04,16,10,24,15.30
2020,04,16,10,25,15.30
2020,04,16,10,26,15.40
2020,04,16,10,27,15.40
2020,04,16,10,28,15.50
2020,04,16,10,29,15.60
2020,04,16,10,30,15.60
2020,04,16,10,31,15.60
2020,04,16,10,32,15.60
2020,04,16,10,33,15.60
2020,04,16,10,34,15.50
2020,04,16,10,35,15.50
2020,04,16,10,36,15.40
2020,04,16,10,37,15.40
2020,04,16,10,38,15.40
2020,04,16,10,39,15.40
2020,04,16,10,40,15.40
2020,04,16,10,41,15.50
2020,04,16,10,42,15.50
2020,04,16,10,43,15.60
2020,04,16,10,44,15.70
2020,04,16,10,45,15.70
2020,04,16,10,46,15.80
2020,04,16,10,47,15.80
2020,04,16,10,48,15.80
2020,04,16,10,49,15.80
2020,04,16,10,50,15.70
2020,04,16,10,51,15.70
2020,04,16,10,52,15.60
2020,04,16,10,53,15.60
2020,04,16,10,54,15.60
2020,04,16,10,55,15.70
2020,04,16,10,56,15.70
2020,04,16,10,57,15.80
2020,04,16,10,58,15.90
2020,04,16,10,59,16.10
2020,04,16,11,00,16.20
2020,04,16,11,01,16.30
2020,04,16,11,02,16.40
2020,04,16,11,03,16.50
2020,04,16,11,04,16.50
2020,04,16,11,05,16.60
2020,04,16,11,06,16.70
2020,04,16,11,07,16.70
2020,04,16,11,08,16.70
2020,04,16,11,09,16.70
2020,04,16,11,10,16.70
2020,04,16,11,11,16.70
2020,04,16,11,12,16.70
2020,04,16,11,13,16.70
2020,04,16,11,14,16.60
2020,04,16,11,15,16.50
2020,04,16,11,16,16.50
2020,04,16,11,17,16.40
2020,04,16,11,18,16.40
2020,04,16,11,19,16.40
2020,04,16,11,20,16.40
2020,04,16,11,21,16.40
2020,04,16,11,22,16.40
2020,04,16,11,23,16.50
2020,04,16,11,24,16.60
2020,04,16,11,25,16.60
2020,04,16,11,26,16.60
2020,04,16,11,27,16.50
2020,04,16,11,28,16.40
2020,04,16,11,29,16.40
2020,04,16,11,30,16.40
2020,04,16,11,31,16.40
2020,04,16,11,32,16.40
2020,04,16,11,33,16.30
2020,04,16,11,34,16.20
2020,04,16,11,35,16.00
2020,04,16,11,36,16.00
2020,04,16,11,37,16.10
2020,04,16,11,38,16.20
2020,04,16,11,39,16.30
2020,04,16,11,40,16.30
2020,04,16,11,41,16.30
2020,04,16,11,42,16.30
2020,04,16,11,43,16.20
2020,04,16,11,44,16.20
2020,04,16,11,45,16.20
2020,04,16,11,46,16.20
2020,04,16,11,47,16.20
2020,04,16,11,48,16.20
2020,04,16,11,49,16.20
2020,04,16,11,50,16.20
2020,04,16,11,51,16.30
2020,04,16,11,52,16.50
2020,04,16,11,53,16.60
2020,04,16,11,54,16.70
2020,04,16,11,55,16.80
2020,04,16,11,56,16.80
2020,04,16,11,57,16.90
2020,04,16,11,58,16.90
2020,04,16,11,59,16.90
2020,04,16,12,00,16.90
2020,04,16,12,01,16.80
2020,04,16,12,02,16.90
2020,04,16,12,03,17.00
2020,04,16,12,04,17.00
2020,04,16,12,05,17.00
2020,04,16,12,06,16.90
2020,04,16,12,07,16.90
2020,04,16,12,08,16.90
2020,04,16,12,09,16.90
2020,04,16,12,10,16.90
2020,04,16,12,11,16.80
2020,04,16,12,12,16.80
2020,04,16,12,13,16.70
2020,04,16,12,14,16.60
2020,04,16,12,15,16.50
2020,04,16,12,16,16.50
2020,04,16,12,17,16.50
2020,04,16,12,18,16.50
2020,04,16,12,19,16.60
2020,04,16,12,20,16.70
2020,04,16,12,21,16.80
2020,04,16,12,22,16.70
2020,04,16,12,23,16.70
2020,04,16,12,24,16.70
2020,04,16,12,25,16.60
2020,04,16,12,26,16.50
2020,04,16,12,27,16.50
2020,04,16,12,28,16.50
2020,04,16,12,29,16.50
2020,04,16,12,30,16.60
2020,04,16,12,31,16.70
2020,04,16,12,32,16.70
2020,04,16,12,33,16.70
2020,04,16,12,34,16.60
2020,04,16,12,35,16.60
2020,04,16,12,36,16.70
2020,04,16,12,37,16.80
2020,04,16,12,38,16.80
2020,04,16,12,39,16.80
2020,04,16,12,40,16.70
2020,04,16,12,41,16.70
2020,04,16,12,42,16.80
2020,04,16,12,43,16.80
2020,04,16,12,44,16.90
2020,04,16,12,45,16.90
2020,04,16,12,46,16.90
2020,04,16,12,47,17.00
2020,04,16,12,48,17.00
2020,04,16,12,49,17.00
2020,04,16,12,50,17.10
2020,04,16,12,51,17.10
2020,04,16,12,52,17.20
2020,04,16,12,53,17.20
2020,04,16,12,54,17.30
2020,04,16,12,55,17.30
2020,04,16,12,56,17.30
2020,04,16,12,57,17.30
2020,04,16,12,58,17.30
2020,04,16,12,59,17.40
2020,04,16,13,00,17.30
2020,04,16,13,01,17.20
2020,04,16,13,02,17.20
2020,04,16,13,03,17.20
2020,04,16,13,04,17.30
2020,04,16,13,05,17.30
2020,04,16,13,06,17.20
2020,04,16,13,07,17.20
2020,04,16,13,08,17.10
2020,04,16,13,09,17.10
2020,04,16,13,10,17.10
2020,04,16,13,11,17.20
2020,04,16,13,12,17.20
2020,04,16,13,13,17.30
2020,04,16,13,14,17.30
2020,04,16,13,15,17.40
2020,04,16,13,16,17.50
2020,04,16,13,17,17.60
2020,04,16,13,18,17.50
2020,04,16,13,19,17.50
2020,04,16,13,20,17.50
2020,04,16,13,21,17.40
2020,04,16,13,22,17.30
2020,04,16,13,23,17.30
2020,04,16,13,24,17.30
2020,04,16,13,25,17.40
2020,04,16,13,26,17.50
2020,04,16,13,27,17.60
2020,04,16,13,28,17.70
2020,04,16,13,29,17.70
2020,04,16,13,30,17.70
2020,04,16,13,31,17.70
2020,04,16,13,32,17.70
2020,04,16,13,33,17.70
2020,04,16,13,34,17.80
2020,04,16,13,35,18.10
2020,04,16,13,36,18.20
2020,04,16,13,37,18.20
2020,04,16,13,38,18.20
2020,04,16,13,39,18.10
2020,04,16,13,40,18.00
2020,04,16,13,41,17.90
2020,04,16,13,42,17.90
2020,04,16,13,43,18.00
2020,04,16,13,44,18.00
2020,04,16,13,45,18.00
2020,04,16,13,46,17.90
2020,04,16,13,47,17.80
2020,04,16,13,48,17.90
2020,04,16,13,49,17.90
2020,04,16,13,50,17.90
2020,04,16,13,51,17.80
2020,04,16,13,52,17.80
2020,04,16,13,53,17.80
2020,04,16,13,54,17.70
2020,04,16,13,55,17.70
2020,04,16,13,56,17.70
2020,04,16,13,57,17.70
2020,04,16,13,58,17.70
2020,04,16,13,59,17.60
2020,04,16,14,00,17.50
2020,04,16,14,01,17.50
2020,04,16,14,02,17.60
2020,04,16,14,03,17.70
2020,04,16,14,04,17.70
2020,04,16,14,05,17.70
2020,04,16,14,06,17.60
2020,04,16,14,07,17.60
2020,04,16,14,08,17.70
2020,04,16,14,09,17.70
2020,04,16,14,10,17.70
2020,04,16,14,11,17.70
2020,04,16,14,12,17.60
2020,04,16,14,13,17.60
2020,04,16,14,14,17.60
2020,04,16,14,15,17.60
2020,04,16,14,16,17.60
2020,04,16,14,17,17.60
2020,04,16,14,18,17.60
2020,04,16,14,19,17.60
2020,04,16,14,20,17.70
2020,04,16,14,21,17.80
2020,04,16,14,22,17.70
2020,04,16,14,23,17.70
2020,04,16,14,24,17.60
2020,04,16,14,25,17.60
2020,04,16,14,26,17.70
2020,04,16,14,27,17.70
2020,04,16,14,28,17.70
2020,04,16,14,29,17.60
2020,04,16,14,30,17.50
2020,04,16,14,31,17.40
2020,04,16,14,32,17.20
2020,04,16,14,33,17.20
2020,04,16,14,34,17.20
2020,04,16,14,35,17.20
2020,04,16,14,36,17.30
2020,04,16,14,37,17.40
2020,04,16,14,38,17.40
2020,04,16,14,39,17.40
2020,04,16,14,40,17.40
2020,04,16,14,41,17.50
2020,04,16,14,42,17.60
2020,04,16,14,43,17.60
2020,04,16,14,44,17.70
2020,04,16,14,45,17.80
2020,04,16,14,46,18.00
2020,04,16,14,47,18.20
2020,04,16,14,48,18.40
2020,04,16,14,49,18.50
2020,04,16,14,50,18.50
2020,04,16,14,51,18.40
2020,04,16,14,52,18.30
2020,04,16,14,53,18.30
2020,04,16,14,54,18.20
2020,04,16,14,55,18.10
2020,04,16,14,56,18.10
2020,04,16,14,57,18.00
2020,04,16,14,58,18.00
2020,04,16,14,59,17.90
2020,04,16,15,00,18.00
2020,04,16,15,01,18.10
2020,04,16,15,02,18.20
2020,04,16,15,03,18.30
2020,04,16,15,04,18.40
2020,04,16,15,05,18.50
2020,04,16,15,06,18.60
2020,04,16,15,07,18.60
2020,04,16,15,08,18.70
2020,04,16,15,09,18.70
2020,04,16,15,10,18.80
2020,04,16,15,11,18.80
2020,04,16,15,12,18.90
2020,04,16,15,13,18.90
2020,04,16,15,14,19.10
2020,04,16,15,15,19.20
2020,04,16,15,16,19.30
2020,04,16,15,17,19.30
2020,04,16,15,18,19.20
2020,04,16,15,19,19.20
2020,04,16,15,20,19.10
2020,04,16,15,21,19.10
2020,04,16,15,22,19.10
2020,04,16,15,23,19.10
2020,04,16,15,24,19.20
2020,04,16,15,25,19.20
2020,04,16,15,26,19.30
2020,04,16,15,27,19.40
2020,04,16,15,28,19.40
2020,04,16,15,29,19.40
2020,04,16,15,30,19.40
2020,04,16,15,31,19.40
2020,04,16,15,32,19.30
2020,04,16,15,33,19.10
2020,04,16,15,34,19.00
2020,04,16,15,35,19.00
2020,04,16,15,36,18.90
2020,04,16,15,37,18.80
2020,04,16,15,38,18.80
2020,04,16,15,39,18.80
2020,04,16,15,40,18.80
2020,04,16,15,41,18.70
2020,04,16,15,42,18.70
2020,04,16,15,43,18.60
2020,04,16,15,44,18.70
2020,04,16,15,45,18.80
2020,04,16,15,46,18.90
2020,04,16,15,47,18.90
2020,04,16,15,48,19.00
2020,04,16,15,49,19.00
2020,04,16,15,50,19.00
2020,04,16,15,51,19.10
2020,04,16,15,52,19.10
2020,04,16,15,53,19.10
2020,04,16,15,54,19.20
2020,04,16,15,55,19.20
2020,04,16,15,56,19.20
2020,04,16,15,57,19.10
2020,04,16,15,58,19.00
2020,04,16,15,59,18.90
2020,04,16,16,00,18.90
2020,04,16,16,01,18.90
2020,04,16,16,02,18.90
2020,04,16,16,03,19.00
2020,04,16,16,04,19.00
2020,04,16,16,05,19.00
2020,04,16,16,06,19.00
2020,04,16,16,07,19.00
2020,04,16,16,08,19.10
2020,04,16,16,09,19.10
2020,04,16,16,10,19.20
2020,04,16,16,11,19.40
2020,04,16,16,12,19.50
2020,04,16,16,13,19.60
2020,04,16,16,14,19.60
2020,04,16,16,15,19.60
2020,04,16,16,16,19.70
2020,04,16,16,17,19.80
2020,04,16,16,18,19.90
2020,04,16,16,19,20.00
2020,04,16,16,20,20.10
2020,04,16,16,21,20.10
2020,04,16,16,22,20.20
2020,04,16,16,23,20.20
2020,04,16,16,24,20.10
2020,04,16,16,25,19.90
2020,04,16,16,26,19.80
2020,04,16,16,27,19.60
2020,04,16,16,28,19.40
2020,04,16,16,29,19.40
2020,04,16,16,30,19.30
2020,04,16,16,31,19.30
2020,04,16,16,32,19.30
2020,04,16,16,33,19.30
2020,04,16,16,34,19.20
2020,04,16,16,35,19.20
2020,04,16,16,36,19.10
2020,04,16,16,37,19.10
2020,04,16,16,38,19.10
2020,04,16,16,39,19.20
2020,04,16,16,40,19.30
2020,04,16,16,41,19.30
2020,04,16,16,42,19.30
2020,04,16,16,43,19.40
2020,04,16,16,44,19.40
2020,04,16,16,45,19.40
2020,04,16,16,46,19.50
2020,04,16,16,47,19.40
2020,04,16,16,48,19.30
2020,04,16,16,49,19.30
2020,04,16,16,50,19.20
2020,04,16,16,51,19.20
2020,04,16,16,52,19.20
2020,04,16,16,53,19.20
2020,04,16,16,54,19.30
2020,04,16,16,55,19.40
2020,04,16,16,56,19.50
2020,04,16,16,57,19.50
2020,04,16,16,58,19.60
2020,04,16,16,59,19.60
2020,04,16,17,00,19.60
2020,04,16,17,01,19.70
2020,04,16,17,02,19.70
2020,04,16,17,03,19.70
2020,04,16,17,04,19.80
2020,04,16,17,05,19.70
2020,04,16,17,06,19.70
2020,04,16,17,07,19.70
2020,04,16,17,08,19.70
2020,04,16,17,09,19.70
2020,04,16,17,10,19.70
2020,04,16,17,11,19.60
2020,04,16,17,12,19.60
2020,04,16,17,13,19.60
2020,04,16,17,14,19.50
2020,04,16,17,15,19.40
2020,04,16,17,16,19.40
2020,04,16,17,17,19.30
2020,04,16,17,18,19.30
2020,04,16,17,19,19.30
2020,04,16,17,20,19.40
2020,04,16,17,21,19.40
2020,04,16,17,22,19.40
2020,04,16,17,23,19.40
2020,04,16,17,24,19.50
2020,04,16,17,25,19.50
2020,04,16,17,26,19.50
2020,04,16,17,27,19.50
2020,04,16,17,28,19.50
2020,04,16,17,29,19.50
2020,04,16,17,30,19.60
2020,04,16,17,31,19.60
2020,04,16,17,32,19.60
2020,04,16,17,33,19.60
2020,04,16,17,34,19.60
2020,04,16,17,35,19.50
2020,04,16,17,36,19.40
2020,04,16,17,37,19.30
2020,04,16,17,38,19.30
2020,04,16,17,39,19.20
2020,04,16,17,40,19.20
2020,04,16,17,41,19.20